Theta_e
319 315 319 320 321 323 323 325 327 328 327 326 329 329 327 327 326 324 324 325 327 325 324 326 327 327 325 325 326 329 330 330 331 328 331 330 331 330 330 329 329 328 328 327
316 316 317 321 322 324 325 324 325 325 326 327 328 328 328 328 327 325 324 324 324 325 325 325 327 327 325 325 326 330 331 330 329 328 332 331 331 330 331 330 330 329 328 327
314 317 319 322 321 323 325 325 324 325 327 327 327 327 329 328 326 325 325 324 325 325 325 325 327 327 325 325 325 330 330 330 328 330 331 330 330 330 331 330 330 328 327 328
314 316 319 322 323 323 324 325 325 326 328 328 327 327 327 327 325 325 324 324 325 324 325 326 327 327 326 326 327 328 330 328 328 328 329 332 332 331 330 329 329 328 328 326
315 315 317 319 323 323 324 325 325 327 327 326 325 325 325 326 327 325 322 325 325 324 326 326 327 328 326 326 325 330 328 327 330 330 330 332 332 331 331 328 329 327 328 327
316 316 316 317 319 324 325 325 326 327 324 326 327 326 326 327 327 325 323 324 327 325 325 326 328 329 327 326 327 327 328 328 330 331 330 330 329 330 329 329 329 328 328 328
317 316 317 318 319 320 325 323 326 326 323 326 326 327 326 326 326 323 325 326 326 326 326 327 328 326 326 326 325 327 329 326 326 329 330 330 327 329 327 326 327 328 327 327
319 318 316 317 318 321 322 323 327 329 329 326 326 327 327 327 324 323 327 327 327 325 326 327 326 325 325 323 326 326 328 326 325 328 329 330 331 327 325 326 327 327 327 326
318 319 318 318 318 320 321 325 323 325 326 326 326 328 328 324 323 322 330 329 326 325 325 326 326 324 325 323 323 323 328 325 325 328 328 331 330 328 327 323 327 327 326 327
318 319 319 319 318 319 322 325 325 322 325 327 328 329 330 324 323 324 332 329 328 326 326 326 325 324 325 323 322 321 326 325 326 327 328 331 330 330 330 329 327 328 326 326
319 322 323 320 319 319 322 326 323 320 321 325 327 329 325 324 326 330 332 330 328 326 325 326 324 326 326 324 322 323 326 324 325 326 327 329 332 331 332 329 327 327 326 327
318 322 323 325 321 321 324 325 322 323 326 325 328 328 328 330 330 330 333 331 326 325 324 325 324 325 325 325 324 324 326 325 324 326 326 329 331 332 331 331 328 329 329 328
319 320 329 323 324 322 326 325 325 323 325 328 330 329 327 328 332 333 332 331 328 324 324 324 325 323 322 324 325 324 326 323 323 325 325 328 331 331 330 330 328 326 328 330
322 320 320 330 326 325 327 326 324 325 328 329 330 327 329 327 329 332 331 328 327 325 325 325 326 323 322 323 325 325 325 322 322 324 324 330 331 331 331 330 330 326 329 330
322 320 326 323 326 327 327 327 326 325 326 327 327 328 328 326 325 331 330 328 327 326 326 326 326 324 320 322 325 325 325 322 322 324 323 327 330 330 329 331 328 325 329 330
319 323 323 328 326 326 327 327 326 325 325 326 326 327 326 326 325 331 330 329 328 327 327 327 327 324 321 322 324 325 325 321 321 324 323 324 326 332 328 329 328 328 329 329
319 329 324 324 326 327 328 327 326 326 325 325 325 325 328 328 327 331 330 329 328 327 327 328 328 324 321 323 324 325 324 320 319 324 323 323 323 330 328 325 324 330 326 326
319 324 325 323 326 332 326 327 327 326 325 324 325 325 327 327 328 332 331 329 328 327 327 327 327 325 323 324 324 325 325 319 319 323 323 322 322 331 330 327 326 328 325 322
318 324 332 326 325 332 328 327 326 326 325 324 324 326 326 325 326 331 331 331 330 328 327 327 328 326 324 324 324 325 324 320 319 321 323 322 322 328 330 329 326 326 327 322
323 327 330 326 330 332 329 326 325 326 327 326 325 325 326 325 325 324 325 331 330 329 328 328 330 326 325 325 325 325 325 321 320 320 320 322 322 325 327 330 327 326 326 329
327 328 333 330 330 330 328 327 325 327 326 328 326 327 326 324 325 324 326 330 331 331 329 331 331 326 325 325 326 325 327 322 321 321 320 320 321 325 325 331 328 328 328 327
328 330 330 326 331 332 329 326 325 323 330 329 329 328 327 329 329 331 330 331 331 331 331 331 330 327 327 326 326 325 326 325 323 322 322 318 319 326 327 332 331 330 332 330
327 323 325 327 332 326 325 327 331 329 329 328 332 329 327 327 327 327 330 331 331 331 332 332 331 329 329 327 326 326 326 328 325 323 323 319 318 326 329 332 332 330 330 332
315 315 322 323 327 319 324 322 321 325 328 331 332 329 326 326 325 326 330 331 331 330 332 332 333 331 329 328 326 326 326 327 326 325 324 320 320 325 329 330 330 329 328 327
315 314 315 319 318 319 319 317 316 327 325 325 328 329 326 325 326 325 328 330 329 329 331 333 334 332 331 329 328 327 327 327 326 326 325 321 320 324 329 329 329 328 326 324
312 314 315 318 314 315 314 314 312 322 327 326 325 327 329 326 325 325 329 329 328 328 332 333 334 334 333 331 330 329 327 328 327 327 325 321 321 326 328 329 329 328 327 325
Wind_Speed
9 7 18 21 20 13 14 14 19 23 21 22 5 20 10 11 8 8 9 8 8 11 10 25 31 27 23 17 14 10 9 7 7 8 8 2 5 6 6 6 6 7 8 9
12 24 19 18 15 16 17 19 24 23 21 10 17 18 9 8 6 9 11 10 6 8 12 12 24 26 24 19 14 11 10 9 5 6 7 4 5 6 8 6 6 6 7 8
23 8 19 18 18 18 20 20 21 20 22 18 5 7 4 4 8 9 12 8 14 19 15 12 13 23 23 18 14 13 10 7 2 3 6 4 9 9 3 4 4 3 3 6
19 18 18 23 22 22 21 20 23 23 17 8 2 5 4 6 9 9 7 10 14 16 13 13 12 16 23 17 16 12 11 5 5 3 7 5 7 5 7 3 5 4 4 4
21 25 25 23 24 25 22 18 21 22 16 5 3 3 5 6 9 17 8 12 15 16 18 16 13 19 22 18 17 14 10 6 4 1 4 3 8 12 7 5 6 4 5 7
23 13 21 29 24 26 24 16 18 13 5 2 6 7 6 7 8 5 7 10 14 11 14 13 18 25 22 17 18 13 10 9 4 5 2 8 9 11 10 8 8 7 3 7
21 28 26 23 23 23 19 12 7 3 1 6 5 4 9 10 9 7 8 9 11 13 15 15 14 12 19 21 19 15 10 8 5 3 5 7 9 9 10 10 8 8 8 10
15 15 30 24 28 23 16 14 6 8 4 7 7 9 17 12 10 10 11 10 12 12 13 13 12 14 20 19 20 15 13 11 6 7 5 8 5 7 7 7 7 8 9 11
18 18 14 28 22 21 21 10 12 5 2 2 5 8 5 7 9 9 13 13 11 10 11 12 12 18 22 21 20 14 13 12 8 10 5 6 6 6 5 8 10 9 12 10
11 7 22 21 20 23 23 7 6 2 7 6 6 6 4 9 10 7 13 12 10 10 11 11 12 16 23 23 19 12 12 14 12 8 6 8 6 6 5 6 8 9 11 8
20 6 10 21 22 25 12 5 4 7 6 5 3 7 8 10 9 15 15 14 15 14 12 11 10 19 25 23 19 13 12 13 13 7 9 7 8 10 6 7 8 10 9 9
28 7 12 17 17 22 9 8 8 8 6 5 5 6 6 11 11 11 15 13 10 13 11 12 11 17 23 23 20 16 12 14 13 12 9 7 8 9 8 11 8 11 11 10
24 18 3 13 9 17 16 14 8 7 6 9 5 5 5 9 11 16 14 14 13 10 10 11 12 10 17 21 24 19 14 17 14 16 13 8 12 11 11 10 11 10 14 15
26 11 20 9 10 16 13 20 16 8 6 6 9 7 4 8 11 14 14 14 15 13 12 11 13 9 17 22 26 22 16 18 17 22 16 11 11 12 12 12 13 15 15 15
15 25 12 24 22 10 24 22 20 16 8 12 7 6 14 12 11 17 16 15 15 14 12 12 13 11 15 21 25 25 20 20 21 23 19 12 13 12 13 14 19 19 20 17
12 18 20 10 20 18 23 23 20 19 10 8 10 9 9 10 10 13 20 19 18 16 16 14 14 13 13 21 24 27 23 23 23 26 22 16 11 11 14 18 20 19 19 16
7 4 15 16 10 11 13 26 24 21 10 13 14 6 7 7 12 20 19 19 20 18 18 17 16 16 18 24 27 28 24 27 22 29 25 20 14 14 16 16 18 18 22 20
12 9 8 12 9 12 9 17 20 20 16 10 10 13 10 8 6 21 19 20 20 19 19 18 15 17 25 33 30 27 26 29 24 30 28 23 17 17 18 15 14 21 26 19
16 7 4 8 17 4 2 13 21 10 10 12 10 14 13 10 9 11 19 16 17 19 17 16 25 27 31 33 33 31 29 30 26 25 30 28 22 21 18 21 18 15 18 21
12 12 3 3 7 12 5 8 11 7 7 10 11 10 9 10 6 5 10 16 12 16 16 17 27 28 31 34 36 34 30 31 28 24 31 31 27 26 20 25 23 19 15 14
4 2 7 2 5 3 1 7 6 13 9 8 11 9 9 7 6 8 8 14 17 17 17 28 31 28 31 36 38 29 30 29 30 26 30 31 29 30 24 29 25 21 17 16
6 6 1 2 6 3 5 11 2 8 2 7 7 9 10 8 9 4 8 16 17 15 17 30 25 25 30 37 35 28 28 33 29 27 29 32 29 32 29 31 28 25 21 18
2 7 4 4 2 12 22 22 18 3 7 6 6 6 10 10 7 8 7 15 15 15 17 28 27 25 28 35 35 27 35 30 31 28 29 34 30 30 30 32 29 25 23 18
10 10 3 9 12 24 15 23 27 22 9 4 4 7 10 10 9 7 8 10 13 9 15 27 25 23 23 29 34 35 38 32 33 29 31 36 34 30 32 31 30 27 24 19
2 7 9 6 15 18 14 25 28 25 22 24 4 4 9 11 10 9 8 9 9 9 13 28 25 25 28 31 31 37 39 36 35 30 33 37 37 32 35 33 32 29 26 26
4 5 2 4 15 3 15 22 27 24 17 18 22 8 2 10 10 8 10 9 8 8 13 18 26 27 28 32 31 36 39 38 36 28 31 32 34 33 34 31 26 26 23 22
Wind_Direction
199 212 229 223 231 228 242 248 249 254 257 250 273 271 217 209 207 226 241 242 219 161 155 143 151 154 153 155 169 189 204 209 239 289 303 352 324 294 260 266 286 288 285 259
222 223 221 232 232 242 228 249 261 274 278 265 214 245 236 206 207 218 229 244 198 118 137 142 144 152 156 159 168 193 200 229 227 296 316 322 335 321 263 256 266 272 269 244
216 223 216 228 230 239 239 232 250 258 275 285 289 320 296 235 229 258 245 213 141 150 152 153 150 153 158 164 176 191 208 183 265 341 26 31 10 359 310 273 293 279 231 201
234 219 221 214 228 226 239 223 236 249 258 253 101 276 302 301 289 280 255 133 148 156 155 154 154 151 162 170 174 191 176 186 189 15 21 31 31 343 340 320 10 127 140 177
210 208 214 227 216 229 241 224 231 240 249 225 275 292 253 277 283 286 171 155 161 162 156 160 154 152 164 171 178 171 167 179 155 185 38 28 9 1 359 69 73 105 162 177
223 231 213 230 232 225 231 232 240 243 196 262 212 182 263 234 239 198 169 162 163 146 143 138 145 154 162 174 166 161 177 172 175 218 65 65 26 35 73 81 87 63 154 162
220 223 236 237 230 237 222 218 243 315 344 228 216 278 236 260 231 163 130 127 138 135 138 144 148 148 159 161 163 165 183 169 203 225 88 86 58 73 80 74 80 70 113 141
208 226 215 219 228 231 224 198 176 200 168 250 243 238 249 221 165 119 129 127 125 131 142 145 141 147 155 162 162 173 187 170 201 149 118 109 70 99 87 84 83 96 119 142
195 228 183 219 223 220 240 203 182 139 212 248 238 276 224 158 126 127 129 124 130 134 139 142 141 150 157 163 167 186 181 171 187 132 147 148 115 126 128 108 81 93 116 125
249 228 230 211 219 241 211 173 137 76 194 263 291 306 225 151 172 160 135 135 137 140 142 144 146 151 162 167 171 186 182 167 157 152 174 148 122 114 125 138 91 110 119 116
215 219 234 215 208 215 217 173 123 131 151 179 233 267 207 175 161 145 150 150 150 153 149 146 147 153 162 165 169 180 168 167 158 146 131 138 146 130 95 98 98 119 123 118
209 203 239 232 213 202 189 159 150 173 226 225 178 272 140 141 152 134 146 149 147 150 145 147 147 147 154 164 170 178 186 171 160 158 146 129 133 108 103 106 102 134 122 129
196 224 252 242 273 196 183 179 147 140 138 212 169 248 195 138 126 135 139 150 147 142 142 150 148 153 160 168 173 179 193 169 169 157 144 128 123 118 119 116 111 118 137 132
177 196 215 222 208 188 172 182 188 153 177 182 215 237 195 147 143 147 151 152 152 155 158 158 155 160 162 173 171 179 191 175 169 148 146 133 139 135 140 123 123 111 125 132
190 203 195 226 249 203 184 181 186 202 172 186 220 229 180 179 175 163 159 151 155 158 159 164 162 164 161 173 174 179 189 172 161 150 147 148 150 157 167 132 129 116 111 121
323 207 200 223 230 243 190 187 190 208 186 181 175 228 187 215 193 138 158 162 165 167 170 166 165 165 163 173 176 177 184 171 160 155 152 157 165 172 128 137 130 136 121 120
284 298 183 214 235 232 235 189 193 206 204 179 199 179 255 174 192 155 159 165 172 176 170 167 170 170 167 172 178 176 181 168 160 159 156 161 180 156 144 145 147 155 142 136
258 311 205 195 204 234 222 195 198 201 200 203 168 184 214 212 186 160 165 168 177 176 171 170 169 166 166 174 179 179 175 168 165 165 163 164 186 156 150 159 119 117 142 134
221 231 279 172 203 311 236 199 192 189 215 193 180 185 192 214 128 177 172 177 171 173 171 170 168 166 164 170 178 175 170 170 172 173 170 171 181 171 173 159 157 139 135 137
202 205 161 159 147 204 221 250 174 115 205 187 161 181 162 170 169 217 183 170 159 160 163 158 159 162 162 170 175 172 170 171 176 192 178 176 181 177 183 166 165 166 160 145
250 166 199 148 106 355 336 278 153 181 218 180 165 172 160 158 172 206 180 157 156 158 153 156 156 163 170 169 172 169 175 177 182 192 184 181 182 181 180 169 165 165 171 179
333 305 153 95 84 78 348 298 240 199 149 104 140 157 151 148 159 161 136 159 151 149 148 156 157 164 169 170 171 170 177 185 185 195 184 182 182 179 179 170 169 167 174 188
15 356 320 352 37 2 14 1 335 162 123 118 130 165 147 140 158 148 169 153 158 150 153 160 161 162 170 171 173 172 184 184 187 200 182 179 179 177 177 173 173 175 182 195
323 354 357 321 351 1 20 345 350 359 5 63 121 164 145 153 159 158 154 141 155 143 151 162 156 161 170 175 176 179 183 187 187 202 181 175 174 172 177 178 179 184 190 195
301 318 310 288 6 349 355 342 342 346 348 1 14 120 153 151 169 161 166 148 146 147 151 159 163 167 175 175 177 179 183 189 188 199 176 170 173 174 176 181 183 189 198 203
220 235 353 338 324 283 307 322 325 340 341 353 354 311 200 159 179 174 155 153 143 143 144 147 165 167 172 176 175 179 185 191 191 182 166 169 171 173 174 179 183 195 201 210